Theta_e
311 318 320 320 322 323 323 320 319 323 323 319 318 319 318 316 315 314 314 308 302 307 312 309 308 308 307 308 307 306 305 303 302 301 301 303 303 302 302 303 304 305 306 305 304 302 300 298 298 297 296 296 295 296 296 296 295 295 295 294 294 294 294 294 294 294 293 294 294 293 293 293 293 293 292 292 292 292 292 292 291 291 292 292 292 292
312 319 320 321 320 320 322 316 313 315 314 314 316 316 315 315 315 312 310 308 304 306 311 310 309 308 307 307 306 306 305 304 303 302 301 302 302 302 302 303 304 305 304 303 303 302 300 298 298 297 296 296 295 296 296 295 295 295 294 294 294 293 293 293 293 293 293 293 293 293 293 293 293 292 292 292 292 292 292 291 291 291 291 291 291 291
316 320 320 317 310 310 312 309 311 315 314 315 316 315 316 314 315 313 309 307 306 307 311 311 309 308 308 307 307 307 307 307 307 306 304 304 303 302 303 304 303 303 303 303 303 303 301 299 298 296 296 295 296 296 296 295 295 294 294 293 293 293 293 293 293 293 293 293 293 293 293 293 293 292 293 292 292 292 292 291 291 291 291 291 291 291
320 323 316 307 304 311 313 308 311 314 314 316 315 316 319 315 315 316 312 308 307 307 309 311 308 307 308 308 308 308 307 308 308 307 307 306 305 304 305 305 304 303 303 304 303 303 302 300 298 297 296 295 295 295 295 295 294 294 294 293 293 293 293 293 293 293 293 293 293 293 293 293 293 292 292 292 292 292 292 291 291 291 291 291 291 291
322 319 305 301 307 317 317 310 311 312 315 318 316 316 318 316 316 316 314 310 310 309 307 309 311 312 312 310 309 308 305 305 305 305 306 305 305 305 305 306 305 305 305 305 304 303 302 301 299 297 297 296 295 295 295 295 294 294 294 293 293 292 293 293 293 293 293 293 293 292 292 292 292 292 292 292 291 291 291 291 291 291 291 291 291 291
319 310 303 307 310 314 318 315 314 314 317 320 319 316 315 317 316 313 312 311 315 316 308 309 314 315 316 314 312 310 309 310 307 305 305 304 304 305 304 306 306 305 306 305 304 304 303 302 300 298 297 296 295 295 295 295 294 294 294 293 292 292 293 293 293 292 292 292 292 292 292 292 292 292 291 291 291 291 291 291 291 291 291 291 291 290
316 305 305 315 314 313 316 316 316 314 315 319 318 315 312 312 312 311 312 312 319 319 309 309 316 315 315 316 318 317 317 317 313 311 309 305 304 304 305 307 307 307 306 305 304 303 303 303 301 300 298 297 296 296 295 294 294 294 293 292 292 292 292 293 292 292 292 292 292 292 292 292 291 291 291 291 291 291 290 290 290 290 290 290 290 290
313 307 308 313 314 314 314 315 316 312 316 320 313 312 314 312 312 313 312 312 314 312 308 311 313 313 313 313 316 316 315 315 313 313 312 308 306 306 307 308 308 309 308 306 305 304 304 303 302 301 300 298 297 296 295 294 294 294 293 292 292 292 292 292 292 292 292 292 292 292 292 291 291 291 291 291 290 290 290 290 290 290 290 290 290 290
310 314 313 312 313 314 314 317 313 311 317 318 308 308 312 312 314 314 311 311 310 308 312 313 309 310 314 313 312 311 311 313 312 312 312 310 308 307 308 311 311 311 309 307 307 306 306 305 303 302 301 300 298 296 295 294 294 293 293 292 292 292 292 292 292 292 292 292 291 291 291 291 290 290 290 290 290 290 290 290 290 290 290 290 290 290
309 311 310 312 317 316 315 311 306 311 315 308 303 307 309 308 310 310 310 311 310 310 314 314 309 311 315 315 313 309 310 314 314 312 311 309 307 308 311 313 313 312 310 309 309 308 307 305 304 302 301 300 298 296 295 294 294 293 293 292 292 292 292 292 292 292 292 291 291 291 291 290 290 290 290 290 290 290 290 290 290 290 290 290 290 289
306 304 304 310 313 311 310 304 300 307 308 302 306 313 313 310 306 307 310 310 312 316 317 313 310 311 315 315 314 312 314 319 318 314 312 310 307 309 313 313 313 312 311 311 310 308 306 304 302 301 300 300 298 295 294 294 293 293 292 292 292 292 292 292 292 292 291 291 291 291 290 290 290 290 290 290 290 290 289 289 290 290 290 290 289 289
306 306 308 308 306 304 308 307 301 301 301 304 314 317 317 315 311 312 313 312 315 320 317 310 307 309 313 314 312 313 313 316 318 318 321 317 309 310 314 313 312 312 311 310 309 308 305 303 302 301 300 299 298 296 294 294 293 293 292 292 292 292 292 292 292 292 291 291 291 290 290 289 289 290 290 290 289 289 289 289 290 290 290 289 289 289
313 312 309 306 304 305 313 314 306 302 303 308 316 318 319 318 318 320 318 315 318 319 312 306 306 308 310 312 311 311 312 313 311 313 317 315 310 313 314 312 311 311 310 309 309 308 306 305 304 302 301 300 298 296 294 294 293 292 292 292 292 292 292 292 292 291 291 291 290 290 289 289 289 289 289 289 289 289 289 289 289 289 289 289 289 288
319 313 307 308 308 306 312 316 313 311 308 308 314 319 320 320 323 327 322 314 315 316 310 304 307 310 310 311 311 310 311 312 308 306 308 310 312 314 312 310 311 310 309 309 308 307 307 306 305 304 302 301 299 297 295 294 293 292 292 292 292 292 291 292 292 291 291 290 290 289 289 289 289 289 289 289 289 289 289 289 289 289 288 288 288 288
319 316 312 313 312 308 310 312 315 315 308 307 313 314 316 323 326 328 325 317 315 319 312 305 309 314 312 313 315 311 307 307 307 306 307 309 312 312 310 310 310 310 310 308 307 307 307 306 305 304 303 301 300 298 295 294 293 292 292 292 292 292 291 292 291 291 291 290 290 289 289 289 289 289 289 289 289 289 289 289 289 288 288 288 288 288
315 317 314 307 306 306 308 307 307 311 310 308 310 312 315 319 318 317 318 315 314 318 314 309 311 314 311 311 313 312 309 307 307 305 305 308 310 309 307 309 310 311 311 309 308 308 307 306 304 303 302 301 299 297 295 294 293 293 292 292 292 291 291 291 291 291 290 290 289 289 289 289 289 289 289 289 289 289 289 288 288 288 288 288 287 287
315 318 310 302 304 303 303 304 304 309 312 308 308 313 313 311 313 316 315 309 309 314 316 314 314 312 310 311 311 310 311 311 308 305 304 305 307 306 305 308 311 311 311 311 309 308 306 305 304 303 302 301 299 298 296 294 293 293 292 292 292 291 291 291 291 290 290 290 289 289 289 289 289 289 289 289 289 288 288 288 288 288 287 287 287 287
317 317 309 305 309 303 297 300 302 303 306 311 314 313 309 308 311 317 317 315 314 315 316 317 314 311 312 312 310 309 311 311 309 308 306 303 302 302 304 308 311 311 311 311 309 307 306 305 304 304 302 301 300 298 296 294 293 292 292 292 292 291 291 291 290 290 290 289 289 289 289 289 289 289 288 288 288 288 288 288 287 287 287 287 287 286
316 315 313 305 307 304 298 302 307 302 301 307 310 306 307 313 314 314 315 317 317 316 318 319 314 312 313 313 312 312 314 313 310 308 307 305 303 301 303 308 311 311 311 311 310 309 307 307 306 304 303 301 300 298 296 294 293 292 292 291 291 291 291 290 290 290 289 289 289 289 289 289 289 289 288 288 288 288 288 287 287 287 287 287 286 286
314 314 316 306 302 304 303 306 312 309 301 301 303 302 306 312 315 315 313 315 317 316 316 316 313 313 314 316 317 314 313 313 312 311 309 306 303 301 304 309 311 311 311 311 311 310 309 309 307 305 303 301 299 298 295 293 292 292 291 291 291 291 290 290 290 290 289 289 289 289 289 289 288 288 288 288 288 287 287 287 287 287 286 286 286 285
313 314 315 309 301 305 308 308 311 311 306 304 305 306 306 306 310 312 311 312 316 316 315 314 312 313 313 315 319 316 313 312 311 314 315 307 302 304 308 311 311 311 311 311 311 310 310 309 306 304 302 299 298 296 294 292 292 292 291 291 291 291 290 290 290 289 289 289 289 289 288 288 288 288 288 288 287 287 287 287 287 286 286 285 285 284
315 316 315 313 309 309 310 308 306 309 309 307 307 308 307 306 309 311 311 311 311 313 316 316 312 312 313 316 318 316 317 315 310 313 315 307 304 309 311 311 311 310 310 311 310 310 309 308 306 303 301 298 297 295 293 292 292 291 291 291 291 290 290 290 289 289 289 289 288 288 288 288 288 288 288 287 287 287 287 287 286 286 285 285 284 284
316 318 315 314 315 312 307 302 300 304 308 308 308 308 307 307 308 311 312 312 310 310 311 312 312 312 313 318 319 319 319 314 306 307 310 306 306 311 311 310 310 310 310 310 309 309 309 307 305 302 299 298 296 294 293 292 291 291 291 291 290 290 290 290 289 289 289 288 288 288 288 288 288 288 287 287 287 287 286 286 286 285 285 284 284 283
312 316 314 313 315 312 305 300 300 303 306 309 310 307 307 307 307 311 311 310 312 311 310 311 312 311 311 315 318 318 313 306 301 302 305 304 306 309 309 309 310 309 309 309 308 308 307 304 302 300 299 297 295 293 292 292 291 291 290 291 290 290 290 289 289 289 288 288 288 288 288 288 288 287 287 287 287 287 286 286 285 285 284 284 283 282
312 316 315 313 316 315 310 307 306 306 306 309 311 308 306 307 307 309 309 308 310 311 310 312 312 310 311 312 313 313 309 307 304 302 302 303 304 307 308 309 309 308 308 308 307 307 306 304 302 301 299 297 294 293 292 291 291 291 291 291 290 290 289 289 289 288 288 288 288 288 288 287 287 287 287 287 287 287 286 285 285 284 283 283 282 282
314 316 314 313 314 314 313 311 312 311 307 306 309 308 306 307 307 308 309 308 309 309 309 310 311 310 310 311 311 310 309 309 305 300 299 301 302 305 307 308 308 307 307 306 306 306 304 303 302 300 297 295 294 293 292 291 291 291 291 290 290 290 289 289 288 288 288 288 287 287 287 287 287 287 287 287 287 286 286 285 284 283 283 282 282 282
317 317 313 313 314 312 311 311 313 315 312 309 310 309 307 306 306 307 309 309 309 309 309 310 310 310 310 309 310 309 309 309 307 303 301 301 302 304 305 306 306 305 305 305 304 304 303 302 300 298 296 295 294 293 292 291 291 291 290 290 290 289 288 288 288 288 288 288 287 287 287 287 287 287 287 287 287 286 285 284 283 282 282 281 281 281
316 315 311 312 312 311 311 311 312 313 313 312 311 309 307 306 306 307 309 309 310 311 310 309 309 310 310 309 309 309 309 309 309 308 306 305 306 306 306 305 304 304 304 303 302 302 302 301 299 297 295 294 293 292 291 291 291 290 290 290 289 289 288 288 288 288 288 287 287 287 287 287 288 287 287 287 286 285 284 283 282 282 281 281 281 281
314 313 311 312 312 311 311 310 311 311 310 310 311 310 309 307 306 307 307 307 309 310 310 309 310 310 309 308 309 309 309 308 308 308 307 307 307 307 306 305 303 303 304 303 302 303 302 300 299 297 296 294 293 292 291 290 290 290 290 289 289 288 288 288 288 287 287 287 287 287 287 287 288 287 287 286 285 284 283 282 281 281 280 281 281 281
310 311 311 311 310 310 310 310 309 309 308 308 309 309 309 307 306 306 307 307 307 308 309 309 309 309 308 309 309 308 308 308 307 307 307 307 307 307 306 304 302 303 303 302 303 303 302 300 299 297 296 294 293 292 291 290 290 290 290 289 288 288 288 288 288 287 287 287 287 287 287 288 287 287 287 286 284 283 282 281 281 280 280 280 281 281
307 310 312 311 311 311 310 310 310 309 308 308 308 308 308 307 306 306 306 306 306 307 307 307 307 308 307 308 308 308 307 307 307 307 307 307 307 307 306 305 304 303 303 303 303 302 301 299 297 296 295 294 293 292 291 290 290 290 289 289 288 288 288 288 287 287 287 287 287 287 287 287 287 287 286 285 283 282 281 281 280 280 280 280 280 281
307 310 311 311 311 311 310 311 311 310 308 308 308 309 309 308 308 307 307 307 307 307 307 307 307 307 307 307 307 307 307 307 307 307 306 306 307 306 306 306 306 305 304 304 303 302 300 299 297 297 296 294 293 291 291 290 290 290 289 289 288 288 287 287 287 287 287 287 287 287 287 287 287 286 285 284 283 282 281 280 280 280 280 280 280 280
308 309 310 311 310 310 311 311 311 311 310 309 309 309 309 309 309 309 308 308 308 308 308 308 308 308 308 308 308 308 308 308 308 307 306 307 307 306 306 306 306 306 306 305 304 303 301 300 299 299 297 295 293 292 291 290 290 290 289 288 288 287 287 287 287 287 287 287 287 287 287 287 286 285 284 283 282 281 280 280 280 279 279 280 280 280
308 308 309 310 310 310 311 311 311 312 311 311 312 312 311 310 310 309 309 309 309 309 308 308 309 308 309 308 308 308 308 308 308 308 308 307 307 307 308 307 307 307 307 306 305 304 302 301 299 298 296 294 293 291 290 290 290 289 289 288 288 287 287 287 287 287 287 287 287 287 287 287 285 284 283 282 281 281 280 280 279 279 279 280 280 280
308 307 308 309 309 310 310 310 311 312 311 311 313 314 311 310 310 310 310 309 309 309 309 309 309 308 308 309 309 308 308 308 308 309 308 307 307 308 307 307 307 307 306 306 305 303 302 300 298 296 294 293 292 291 290 289 289 289 288 287 287 287 287 287 287 287 287 287 287 287 287 286 285 283 283 282 281 280 280 279 279 279 279 279 279 279
308 308 308 308 309 308 309 310 311 312 311 310 311 311 309 309 309 309 309 310 309 308 309 309 308 308 309 309 308 308 308 308 308 308 307 307 307 308 307 307 308 307 306 306 304 303 303 301 299 298 296 294 292 290 289 289 289 288 287 287 287 287 287 287 287 287 287 287 287 287 286 285 284 283 282 281 281 280 279 279 279 279 279 279 279 279
307 308 308 308 309 309 309 309 310 311 310 310 310 309 309 310 310 309 310 310 309 308 309 308 308 308 308 308 308 307 307 307 307 307 307 306 307 308 307 307 307 306 306 305 303 302 302 300 299 298 296 294 291 290 289 289 288 288 287 287 287 287 287 287 287 287 287 287 287 286 285 284 283 283 282 281 280 279 279 279 278 278 278 278 279 279
306 308 309 309 310 310 310 310 310 310 311 310 309 310 310 310 310 310 310 310 309 309 309 309 309 308 308 309 307 306 306 308 308 308 307 307 307 307 307 307 307 306 305 304 303 301 300 299 298 297 295 293 291 289 289 289 288 287 287 287 287 287 287 287 287 287 287 287 287 286 284 283 283 282 281 280 280 279 278 278 278 278 278 278 278 278
307 307 308 309 309 310 311 311 310 311 312 310 310 311 309 306 308 310 310 310 310 309 309 309 309 309 309 309 308 307 308 309 309 308 308 308 307 307 308 308 307 307 306 304 302 301 300 299 297 295 293 292 290 289 288 288 288 287 287 287 287 287 287 287 287 286 287 287 286 285 284 283 283 282 281 280 279 278 278 277 277 277 277 277 277 277
307 307 307 308 309 309 310 310 310 311 311 311 312 310 304 302 307 311 310 311 312 310 309 309 309 309 309 307 308 309 310 309 309 309 308 307 307 307 308 308 307 307 306 304 302 300 299 298 297 294 292 290 290 289 288 288 287 287 287 287 287 287 287 286 286 286 286 286 285 284 283 283 282 281 280 279 278 278 277 277 277 276 276 277 277 277
308 308 307 307 308 309 310 310 311 310 311 313 311 305 301 304 310 312 312 313 312 311 309 307 308 308 307 306 306 307 308 308 309 309 308 306 305 305 306 306 306 305 304 302 301 299 298 297 296 295 292 290 289 289 288 287 287 287 287 286 286 287 286 286 286 286 286 285 284 283 283 282 281 281 279 279 278 277 277 276 276 276 276 276 276 277
308 308 308 308 308 308 309 310 311 310 311 311 308 302 303 308 312 311 311 311 311 309 307 306 307 307 307 306 305 306 308 309 309 309 307 306 305 304 304 304 304 303 303 300 298 297 296 294 293 292 290 289 288 288 287 287 287 287 286 286 286 286 286 286 286 286 286 284 283 283 282 281 281 280 279 278 277 277 276 276 275 275 275 275 276 276
310 309 309 308 309 309 309 310 310 312 312 309 306 304 306 310 311 311 310 310 310 309 307 307 307 308 307 306 306 307 309 309 308 307 307 306 304 303 303 303 302 303 303 301 299 297 295 294 292 290 289 288 288 287 287 287 286 286 286 286 286 286 286 286 286 286 285 283 283 282 281 281 280 279 278 277 277 276 276 276 275 275 275 275 275 276
311 311 311 310 309 310 310 310 310 311 310 308 307 308 307 308 310 310 310 310 310 309 308 307 308 308 308 307 308 308 308 307 307 307 306 306 304 302 302 301 301 301 300 300 298 297 295 293 292 289 288 288 287 286 286 286 286 286 286 286 286 286 286 286 286 285 284 283 282 282 281 280 279 278 278 277 276 276 276 275 275 275 274 274 275 275
312 312 312 311 311 311 312 311 310 310 309 307 308 309 308 307 308 310 310 309 309 309 309 308 308 309 308 308 308 308 307 307 307 306 306 306 305 303 302 301 301 300 299 298 297 295 293 292 291 290 288 287 286 286 286 286 286 286 286 286 286 286 286 286 286 285 283 282 282 281 280 279 278 278 277 276 276 276 276 275 275 274 274 274 274 274
312 312 312 312 311 311 311 311 311 311 309 306 307 309 309 308 308 308 308 308 308 309 309 309 309 309 308 307 307 307 307 308 307 306 306 305 304 303 301 300 298 297 297 296 295 293 291 290 290 289 288 286 286 286 286 286 286 286 286 286 286 286 286 286 285 284 282 282 281 280 279 279 278 277 276 276 276 276 275 275 274 274 274 274 273 274
312 312 311 311 312 312 312 312 312 311 309 307 306 307 308 308 308 308 307 307 307 308 308 309 309 309 308 307 307 307 308 308 307 306 305 304 304 302 300 299 298 297 297 296 295 293 291 289 289 288 287 286 286 285 286 286 286 286 286 286 286 286 286 285 284 283 282 281 280 280 279 278 277 276 276 275 275 275 275 274 274 274 274 273 273 273
312 312 312 311 312 312 312 312 311 310 309 308 307 306 306 307 307 307 307 308 308 308 308 307 308 308 307 307 307 307 308 307 307 306 305 304 304 302 300 299 299 297 296 295 294 292 291 289 288 288 287 286 286 286 286 286 286 286 286 286 286 286 286 285 284 282 281 281 280 280 279 278 277 276 275 275 275 274 274 274 274 274 273 273 273 273
310 310 312 313 312 312 311 312 312 310 309 308 307 306 307 307 307 307 307 307 307 308 307 307 307 307 307 307 307 307 306 306 306 306 305 304 304 302 301 300 299 297 296 294 293 292 291 289 288 287 287 287 286 286 286 286 286 286 286 286 286 286 285 284 283 282 281 280 280 279 279 278 277 276 275 275 274 273 273 273 274 273 273 272 272 272
310 310 312 313 312 312 312 311 311 311 311 310 309 308 308 309 308 307 307 307 306 307 307 307 307 307 306 306 306 306 305 306 306 305 304 304 304 303 302 299 297 295 295 294 292 290 289 288 288 287 287 287 286 286 286 286 286 286 286 286 286 285 285 283 282 281 280 280 279 279 278 277 276 275 275 274 274 273 272 272 272 272 272 272 272 271
311 311 311 312 311 311 312 311 310 310 311 311 310 310 310 310 308 307 307 307 307 307 308 307 307 306 306 306 306 305 304 305 305 304 303 304 304 303 301 299 297 294 293 292 291 289 287 287 287 287 287 286 286 286 286 286 286 286 286 286 285 285 284 283 281 280 280 280 279 278 277 276 275 274 274 273 273 272 272 272 272 272 272 272 271 272
Wind_Speed
3 1 4 7 7 8 9 8 6 4 6 5 4 4 5 5 7 6 4 4 1 2 9 9 9 13 17 17 20 22 16 20 29 26 26 32 33 33 35 39 43 45 47 44 44 45 44 44 43 41 40 37 35 34 33 32 30 27 24 22 19 17 14 11 9 8 8 8 8 9 9 11 12 13 14 15 17 18 19 20 21 23 24 26 27 30
4 4 9 10 9 7 6 6 6 5 5 4 5 4 4 4 7 7 2 4 1 2 6 6 6 13 17 15 18 20 13 19 29 23 26 33 33 33 34 39 43 43 43 42 44 46 45 46 45 43 42 40 39 38 36 34 31 28 25 22 20 17 14 12 10 9 9 8 8 9 10 11 12 13 14 16 17 18 19 21 22 24 25 27 29 31
1 7 12 8 7 6 4 5 7 6 5 3 3 2 4 4 5 6 3 4 1 2 5 6 7 14 18 17 18 20 20 27 33 25 29 34 31 32 36 40 41 39 40 43 45 46 47 48 47 45 44 43 41 39 37 35 31 29 26 23 20 17 15 13 11 10 10 9 9 10 11 11 13 14 15 16 17 18 19 20 22 24 26 28 29 32
3 8 8 6 10 8 5 4 6 5 3 3 4 3 5 3 1 4 3 3 1 2 4 6 9 13 16 16 17 22 26 31 34 28 31 34 32 35 38 39 39 38 41 44 45 46 47 48 49 48 47 45 42 40 38 35 33 31 27 23 21 18 16 14 13 11 10 10 10 11 12 12 13 15 16 16 17 18 19 20 21 23 26 28 30 32
7 7 4 8 7 7 6 3 5 5 2 3 5 6 6 4 5 6 3 3 2 1 2 6 10 9 7 10 12 10 11 19 25 25 29 34 33 34 35 36 38 39 41 43 44 45 46 48 51 51 49 47 45 44 41 38 35 32 27 24 22 19 17 15 13 12 11 11 11 12 12 14 14 16 17 18 18 20 20 21 22 24 26 28 30 32
9 5 9 8 3 5 7 4 6 8 3 4 6 11 10 7 7 4 2 4 3 3 2 4 8 7 1 4 9 5 2 8 11 13 21 28 28 30 33 35 38 38 40 41 42 42 43 46 50 52 52 51 49 48 44 40 36 32 28 25 23 21 19 16 14 12 11 11 12 12 13 15 15 16 18 19 20 21 22 23 24 25 27 29 30 32
4 2 6 6 5 5 5 5 6 8 5 2 4 7 8 6 4 2 1 2 0 2 3 3 2 8 3 2 8 5 4 9 8 9 18 23 22 26 32 34 35 36 38 39 39 40 41 44 48 53 55 54 52 50 45 40 36 32 29 27 24 22 20 17 15 13 12 12 12 13 14 16 17 17 18 20 21 22 23 24 25 25 26 28 30 32
2 4 3 5 6 5 5 6 6 9 7 3 3 4 6 6 5 4 3 1 3 2 3 1 2 8 8 7 9 8 7 11 12 13 19 22 22 25 30 32 32 33 34 35 37 38 40 43 47 51 54 54 53 50 45 41 38 34 31 28 26 23 20 18 15 13 13 13 13 14 15 16 18 19 19 20 22 23 24 25 25 26 27 28 30 32
3 6 6 7 5 4 6 5 8 12 5 4 3 6 6 6 5 4 4 2 1 3 4 4 4 5 10 6 3 3 6 11 14 15 17 21 21 23 27 29 27 27 29 31 33 35 37 40 43 46 50 52 52 51 47 43 39 35 32 29 27 25 21 18 16 14 13 13 14 15 16 17 18 19 20 21 23 24 25 26 26 27 28 29 31 32
2 4 6 8 6 6 5 1 4 8 4 4 6 6 6 5 5 4 3 2 2 2 7 7 7 4 10 4 4 2 4 9 12 12 14 18 20 22 24 22 20 21 24 26 29 31 34 37 39 42 46 50 52 51 47 42 39 36 33 31 29 26 22 19 16 15 14 14 14 15 16 17 18 19 20 22 23 25 26 27 27 29 30 31 32 33
1 2 1 4 5 5 6 4 3 2 5 8 7 5 6 5 4 3 1 3 1 5 8 8 12 9 8 3 6 4 5 9 9 8 11 13 17 23 22 18 16 17 18 21 24 28 32 34 36 39 43 48 50 49 46 43 40 38 35 33 29 26 23 20 17 15 15 14 15 15 16 17 18 19 21 22 24 25 26 27 28 29 31 32 33 34
1 2 2 3 6 8 8 5 5 4 5 6 4 3 3 3 3 4 4 3 1 7 5 4 8 9 9 6 4 5 6 7 9 8 10 10 15 23 21 16 14 14 15 18 22 26 30 32 35 38 42 46 49 49 48 46 42 40 37 34 30 27 24 20 17 16 15 15 15 16 16 17 18 20 22 23 24 25 27 28 29 30 31 32 33 34
2 4 2 2 5 8 7 5 3 3 2 3 4 5 3 3 3 3 3 1 3 8 3 3 4 4 13 11 6 8 10 10 10 11 12 10 15 22 19 13 13 13 15 18 20 24 28 31 34 37 40 44 48 50 50 48 45 42 38 35 31 28 24 20 18 16 15 15 15 15 16 17 19 21 22 24 25 26 27 29 30 31 33 34 34 35
3 3 2 3 4 9 11 6 3 2 3 5 5 5 3 2 1 3 4 2 5 8 3 3 3 4 10 8 11 16 17 17 17 19 20 16 17 20 16 14 15 16 18 19 21 23 26 29 32 35 38 42 46 50 51 50 47 43 39 36 32 27 24 21 18 17 15 15 15 15 16 18 19 21 22 24 25 26 28 29 31 33 34 35 36 37
4 7 5 6 2 10 13 6 5 6 5 5 4 5 5 5 4 4 4 4 7 7 4 1 2 4 4 3 9 14 14 18 22 24 23 21 22 21 19 19 19 21 21 21 22 24 26 28 30 33 36 40 44 48 51 51 48 44 40 36 32 28 24 21 19 17 15 14 15 15 17 18 20 21 22 23 25 26 28 29 31 33 34 36 37 38
4 9 5 1 1 8 8 3 5 8 4 2 3 4 3 5 5 2 3 4 1 5 5 3 4 6 4 2 5 5 5 11 19 20 18 23 29 25 23 25 25 25 25 25 26 26 26 28 30 32 35 38 42 47 51 52 49 45 41 36 32 28 25 22 19 17 15 14 15 15 17 18 20 22 22 24 25 26 27 29 32 33 34 36 38 39
3 6 3 3 2 3 2 1 2 3 3 3 2 3 4 4 5 2 3 1 4 3 7 2 6 11 6 4 5 4 5 9 11 10 13 24 29 23 23 27 27 26 27 28 29 27 27 27 29 31 34 37 41 46 50 52 50 45 41 36 32 28 25 22 19 16 15 14 15 16 17 19 20 22 23 24 25 26 28 30 32 34 35 37 39 40
4 4 3 2 0 1 1 2 2 2 3 5 4 5 3 2 4 3 2 3 2 5 6 4 11 17 12 7 1 4 6 12 10 7 10 18 20 18 23 29 29 28 28 28 28 26 26 27 28 31 33 36 40 43 49 51 48 44 40 36 32 28 25 21 18 16 15 15 15 16 18 19 20 22 23 25 26 27 28 30 32 34 36 38 40 41
3 3 4 1 1 1 1 1 1 2 2 4 4 2 3 3 2 2 2 3 4 4 5 10 16 18 14 9 4 4 10 12 10 9 10 13 14 17 26 30 30 29 28 28 28 26 26 27 28 31 33 36 39 43 47 49 47 43 39 36 32 28 24 21 18 16 15 15 16 17 18 19 20 22 23 25 26 27 29 31 33 35 37 39 40 42
3 3 4 1 1 0 2 2 5 3 1 3 0 1 2 2 4 3 3 3 3 3 5 12 15 16 10 6 6 9 12 11 8 9 10 12 16 21 27 29 28 27 28 28 26 24 25 26 28 31 33 35 38 42 46 48 46 44 40 36 32 27 23 20 18 16 16 16 17 17 18 19 20 22 24 25 26 28 30 32 34 36 38 40 41 43
3 3 5 1 2 1 4 6 9 10 7 4 3 3 2 1 2 1 1 2 3 4 4 7 12 16 7 7 7 9 9 10 10 10 9 11 18 25 27 27 27 27 27 24 22 22 24 26 29 32 34 35 38 42 45 48 47 44 40 36 31 26 23 20 18 17 16 16 17 18 18 19 21 22 24 25 27 29 31 33 35 37 39 41 42 43
3 3 5 3 2 6 8 5 3 6 9 9 8 8 9 6 4 2 5 3 3 4 5 4 10 18 7 7 5 6 6 7 10 11 9 11 20 26 26 27 27 27 24 20 20 23 24 28 30 32 34 36 39 42 46 48 47 44 40 35 30 26 23 20 18 17 17 17 17 17 18 20 21 23 24 25 27 30 32 34 36 37 39 41 42 42
3 3 4 6 7 7 5 2 1 1 4 5 5 7 7 7 7 7 9 5 2 2 3 3 6 18 8 7 4 5 7 8 12 13 10 13 22 25 25 27 27 23 20 18 22 25 26 29 31 32 35 37 40 43 47 49 47 44 39 34 29 26 23 20 18 17 17 17 17 17 18 20 21 22 24 26 28 30 32 34 36 38 39 40 41 40
3 2 4 6 6 3 3 4 3 3 3 3 5 5 6 7 9 9 6 3 3 5 3 4 6 19 10 5 4 4 5 8 12 15 14 14 21 24 24 24 22 19 19 21 25 27 28 30 31 33 36 38 41 45 49 50 47 43 38 33 29 25 23 20 18 18 17 16 17 17 18 20 21 22 24 27 29 31 33 35 36 38 38 39 39 38
7 3 5 5 5 5 4 2 3 4 1 4 5 5 8 10 9 3 1 1 4 7 8 5 10 18 10 2 3 3 5 6 9 15 18 16 18 21 21 20 20 20 22 24 27 28 30 31 32 34 37 39 42 47 50 50 47 43 38 33 28 25 22 20 19 18 17 16 16 17 18 19 21 22 25 28 30 32 34 36 37 37 37 37 37 37
9 4 7 8 8 10 11 9 4 1 3 3 2 6 11 14 13 7 3 6 9 6 10 7 15 18 14 11 10 10 8 7 9 12 15 17 18 20 20 21 23 25 26 28 29 30 31 32 33 35 37 40 44 48 51 51 47 43 37 32 28 25 22 20 19 17 16 16 16 16 17 19 21 23 26 29 31 34 35 37 37 36 35 35 36 37
4 3 11 14 15 15 14 13 5 6 5 5 6 9 12 15 16 11 7 11 9 4 6 15 23 20 18 21 24 23 17 14 13 11 11 15 20 22 25 29 30 30 30 30 30 30 31 32 34 36 37 40 45 49 51 50 47 43 37 32 28 25 22 21 18 17 16 16 16 16 17 19 21 24 27 30 32 35 36 35 35 34 34 34 35 36
2 4 13 17 19 17 16 18 8 8 7 9 9 12 13 14 15 14 16 17 7 5 10 22 22 17 17 23 29 30 25 20 16 14 13 19 24 26 28 30 29 28 29 29 30 31 32 33 35 36 38 41 45 49 51 49 46 41 35 31 28 25 22 20 18 17 16 15 16 16 17 19 22 25 28 31 33 35 34 33 33 33 33 33 35 36
3 7 12 14 18 16 17 19 10 7 8 8 8 13 15 16 17 19 24 22 12 11 18 20 16 15 19 26 30 29 25 17 16 21 24 25 26 25 25 25 25 26 28 29 31 32 33 35 36 37 39 42 46 50 51 49 45 40 35 31 28 25 22 20 18 17 16 15 15 16 18 20 24 26 29 32 33 33 32 31 31 32 32 33 34 35
3 7 12 13 16 16 17 20 13 8 11 13 11 13 16 18 18 20 26 26 23 23 21 17 16 17 22 27 27 27 26 20 20 30 34 31 30 29 28 27 26 28 31 32 33 34 35 36 36 37 40 43 47 51 52 50 46 40 35 31 28 25 22 20 18 16 15 15 15 16 18 21 24 27 30 32 32 31 30 30 30 31 32 33 34 35
3 7 9 9 10 14 18 20 13 9 13 17 15 17 23 21 15 18 25 24 21 20 18 17 16 18 24 27 22 25 29 24 23 30 35 37 37 33 32 31 30 32 34 35 36 36 35 35 36 38 41 44 48 51 52 51 45 39 34 31 27 24 22 19 17 16 15 14 15 17 19 22 25 27 30 31 30 29 29 29 30 31 32 33 33 34
3 4 4 5 7 12 16 16 9 8 9 12 16 25 30 23 16 20 23 18 14 14 16 16 15 17 22 20 15 18 20 17 19 23 28 35 36 31 30 34 35 34 36 37 37 36 35 36 38 39 42 45 47 51 53 51 45 39 35 31 27 24 21 19 17 15 14 14 15 17 19 23 25 28 29 29 28 28 28 29 30 31 32 32 33 34
4 4 4 6 8 12 15 12 4 5 4 10 15 21 23 21 21 23 21 16 14 12 12 14 15 18 19 15 15 17 14 13 18 24 28 32 31 29 32 36 37 36 37 37 37 36 36 37 38 40 42 44 47 51 53 50 44 39 34 30 27 24 21 18 16 14 13 13 15 17 20 23 26 27 28 27 27 27 28 29 30 31 32 32 33 34
4 6 7 6 7 11 10 4 3 4 10 13 8 7 14 21 24 22 19 20 18 14 13 15 18 22 21 18 19 19 17 21 30 37 38 30 25 30 36 37 37 37 38 38 36 36 36 36 38 39 41 43 46 50 51 46 41 37 33 29 26 23 20 17 15 13 12 13 15 18 21 24 25 26 26 25 26 26 27 29 30 31 32 32 33 34
7 8 7 5 6 6 1 3 3 9 12 8 4 6 14 16 14 14 16 19 19 18 18 19 22 25 25 23 23 22 26 35 44 50 42 25 24 36 40 39 40 39 39 39 36 35 35 35 37 39 41 43 46 50 49 45 40 36 32 29 25 22 19 16 14 12 12 13 16 18 21 23 24 24 24 24 25 26 27 28 29 31 32 32 33 34
12 10 7 6 6 3 2 6 10 9 5 8 13 16 12 5 3 6 13 17 17 18 18 18 21 26 26 25 27 30 35 36 39 46 38 24 31 44 42 42 44 41 39 39 36 34 34 34 36 37 40 43 46 49 48 45 40 36 31 28 25 21 18 15 13 11 11 13 16 18 21 23 23 22 23 23 25 25 26 28 29 30 31 31 32 33
15 12 7 7 8 6 7 10 9 7 8 12 20 19 9 7 9 9 11 16 16 17 17 16 20 26 25 23 28 33 29 18 17 31 36 31 36 43 39 39 40 35 32 33 30 29 30 32 34 36 39 42 45 48 47 43 39 35 31 28 24 21 18 14 12 11 11 13 16 18 20 21 21 21 22 23 24 25 26 27 28 29 30 32 33 34
17 14 11 9 8 8 9 9 6 7 8 15 25 20 9 11 14 11 8 12 17 21 19 16 21 26 22 21 24 19 11 7 7 19 32 32 30 32 31 30 28 24 23 24 24 25 28 30 33 35 38 40 45 48 46 42 38 34 31 27 23 20 17 13 11 10 11 13 16 18 19 20 20 20 21 22 24 25 26 27 27 28 29 31 33 34
18 13 12 11 7 7 9 8 8 10 9 15 25 20 9 13 11 7 3 11 20 25 21 17 22 24 18 19 18 6 2 7 8 15 29 31 25 25 26 23 20 19 20 21 22 23 26 28 31 34 37 41 46 48 45 41 37 34 30 26 23 19 16 13 10 9 11 13 15 17 18 18 19 20 21 22 23 24 26 26 26 27 28 29 32 34
15 10 10 11 10 12 12 9 8 8 7 14 21 14 9 16 13 7 1 13 21 23 20 18 19 21 19 17 13 6 6 11 12 17 29 27 19 19 19 17 18 19 19 21 21 21 24 27 31 35 38 43 47 48 44 40 36 33 29 25 21 18 14 11 9 8 11 13 14 16 16 16 17 19 20 22 22 23 25 26 26 27 27 28 30 33
9 8 9 10 13 15 14 12 10 6 8 15 14 7 16 16 9 3 11 19 18 11 15 19 19 22 23 17 10 9 16 25 28 29 28 22 16 17 16 16 18 18 17 19 19 21 25 28 31 34 38 44 48 46 43 39 35 31 28 24 20 16 13 9 8 8 10 12 13 14 15 15 16 17 19 21 22 22 23 25 26 26 27 28 30 32
5 5 7 9 11 12 12 13 10 6 11 14 9 15 17 9 5 12 20 25 17 6 12 19 21 24 26 21 20 23 30 35 37 34 30 27 23 20 18 19 20 19 18 18 18 21 25 29 32 35 40 46 47 44 41 38 34 30 26 22 19 15 11 8 8 9 10 11 12 12 13 14 15 17 18 20 21 21 22 23 24 25 26 27 29 32
9 6 6 8 8 8 8 9 8 7 13 15 14 12 10 10 14 18 19 24 24 15 14 19 24 27 27 25 30 36 36 35 33 31 32 33 28 24 23 22 21 21 22 21 21 24 27 31 35 40 44 47 46 42 39 36 32 29 25 21 18 14 10 8 9 9 9 9 10 11 11 13 14 16 17 18 19 20 21 22 23 25 26 27 28 31
10 8 6 6 8 8 7 9 11 11 12 23 23 11 16 28 36 33 22 19 25 24 19 20 27 31 30 29 33 36 36 34 32 30 32 33 32 30 27 24 23 23 23 23 24 26 29 33 38 44 47 47 45 41 38 35 31 28 24 20 17 13 10 9 9 8 8 8 9 10 10 12 14 15 16 17 18 19 20 21 23 24 25 26 28 30
13 15 13 11 10 11 12 12 10 10 13 27 32 26 30 44 54 52 37 24 24 28 25 23 29 32 32 33 34 33 34 35 34 33 33 34 34 33 30 28 27 26 25 25 26 29 32 36 41 47 49 47 43 40 37 33 29 26 23 19 16 12 11 10 8 7 7 7 7 8 10 11 13 14 15 15 17 18 19 21 23 24 26 26 28 30
16 19 17 13 9 12 15 10 6 9 14 24 35 38 38 42 49 52 46 33 29 33 31 28 32 34 32 32 33 32 35 37 36 35 35 35 35 34 32 30 29 28 28 29 30 33 37 39 44 49 51 48 43 40 36 32 28 24 21 18 15 13 11 9 7 6 6 6 7 7 9 11 12 13 13 14 16 17 18 20 22 24 26 27 28 29
11 14 14 11 10 12 13 10 12 17 20 22 29 37 40 42 43 44 42 39 41 45 41 36 38 36 31 30 33 36 39 39 37 36 36 36 37 37 35 34 34 33 33 33 34 37 41 45 49 51 51 48 44 40 36 32 28 24 20 17 15 13 11 8 6 6 5 6 7 8 9 10 10 10 11 13 14 15 16 18 21 24 26 27 28 29
8 12 13 13 13 14 13 13 15 20 24 25 26 29 34 41 44 42 42 44 47 49 46 43 41 38 34 34 37 40 41 40 39 39 38 38 39 39 39 39 38 37 36 35 36 40 44 49 52 52 50 47 43 40 36 32 28 24 21 18 16 13 11 8 5 5 5 6 8 9 10 10 10 9 9 11 13 15 16 17 18 21 24 26 28 29
2 7 6 6 10 14 15 14 13 15 18 20 24 30 37 43 45 44 45 46 46 46 45 42 41 41 42 42 43 43 42 42 43 43 41 41 42 42 42 42 41 41 40 39 40 43 46 50 53 52 49 46 43 39 35 31 27 24 21 19 16 13 10 7 5 5 6 7 8 9 10 10 9 9 9 9 10 12 16 18 20 21 22 22 24 25
4 6 4 4 9 11 11 11 14 14 13 16 25 36 43 44 44 43 42 42 43 46 47 46 46 46 46 46 48 46 43 45 47 46 43 44 46 46 45 44 43 43 42 41 43 46 48 51 52 50 47 45 42 38 34 31 27 24 22 19 16 13 10 7 6 5 6 8 9 10 10 10 8 8 9 9 9 9 11 14 18 21 22 21 21 21
11 12 9 10 14 15 14 16 18 15 13 21 33 41 42 42 42 41 42 45 47 49 50 50 49 48 49 51 53 49 46 48 49 46 45 47 48 47 46 45 46 46 44 44 46 49 51 51 50 49 47 44 41 37 33 30 27 24 22 19 16 13 10 7 6 6 7 8 9 9 9 8 8 8 9 9 10 10 10 10 11 14 18 20 21 20
Wind_Direction
121 202 224 222 214 207 212 198 187 175 144 141 152 183 223 236 264 255 240 281 109 215 261 244 243 259 260 263 269 269 253 242 251 247 241 244 242 238 234 234 235 235 238 236 231 228 225 224 225 225 224 223 223 223 225 227 229 231 232 235 236 237 238 239 245 253 263 277 289 297 306 309 311 316 319 321 323 324 323 322 322 321 322 322 322 323
108 208 237 226 208 199 198 175 138 120 115 115 153 201 250 228 255 267 262 312 359 175 266 277 272 266 261 260 266 269 258 244 247 242 240 243 241 239 236 239 240 239 240 236 233 230 225 224 225 225 224 223 224 224 225 227 228 230 231 234 235 236 238 240 245 252 261 273 285 294 302 309 312 316 321 322 323 324 322 320 320 321 322 323 325 324
114 237 247 215 159 117 91 124 124 120 119 115 140 173 264 236 267 294 338 347 14 185 270 298 288 272 267 263 259 254 247 253 254 246 245 246 241 239 239 241 241 239 239 237 235 232 227 225 224 225 225 225 226 227 228 228 227 229 230 233 235 235 237 240 245 251 261 274 285 295 302 310 315 317 322 322 321 321 319 318 318 320 321 323 324 323
199 254 253 171 143 118 84 104 112 106 123 153 149 175 252 240 266 286 305 322 225 201 279 291 279 269 266 263 256 249 246 257 264 259 256 252 244 243 245 246 244 240 240 239 237 234 229 225 223 224 225 225 226 226 227 227 226 228 230 233 235 235 237 240 246 254 264 276 287 297 304 312 316 318 319 319 319 318 316 317 318 320 322 323 322 320
227 244 154 127 136 127 119 143 141 148 223 240 196 205 239 234 222 236 282 322 296 325 331 311 291 270 257 254 256 260 253 260 265 261 257 252 246 247 249 249 247 245 244 242 239 235 230 226 224 225 226 226 226 226 226 226 226 228 230 234 235 235 238 242 248 256 267 278 289 299 305 312 315 316 316 316 318 318 318 321 322 324 323 322 322 319
249 216 141 127 111 121 138 193 192 177 206 291 230 216 225 230 233 245 340 358 360 336 327 360 317 284 282 261 260 285 317 271 266 256 253 251 244 241 242 244 246 246 246 245 242 239 234 230 227 225 226 226 226 227 227 225 226 228 230 232 234 236 239 244 250 257 268 278 289 299 305 309 312 315 316 317 320 321 321 323 324 324 323 322 321 319
252 167 138 141 154 157 176 234 223 173 153 292 247 209 208 207 205 204 47 16 267 261 288 48 315 274 283 253 256 264 280 277 278 270 265 257 244 237 241 244 245 246 246 243 242 239 237 233 228 226 227 227 228 228 226 224 225 226 227 230 233 237 240 244 250 258 268 279 289 298 304 307 309 313 317 318 320 320 320 321 321 321 322 321 319 317
134 111 94 119 139 159 196 242 218 158 142 239 242 130 140 150 164 177 136 169 235 287 314 154 192 274 274 238 246 248 255 275 273 268 273 267 251 242 246 250 249 250 249 244 241 239 238 236 231 229 228 228 229 228 225 223 223 224 225 229 232 236 239 244 250 258 267 279 289 297 303 306 308 312 316 318 318 317 317 318 319 321 322 321 318 316
115 151 175 148 135 176 202 237 193 160 153 239 197 114 120 133 141 141 125 179 286 15 299 235 161 276 275 240 255 260 232 259 260 251 259 263 256 249 251 254 254 254 252 248 246 245 244 241 237 233 231 230 229 227 225 223 223 224 225 228 232 235 238 242 249 258 267 278 288 296 301 304 307 311 315 318 317 317 317 319 321 323 323 320 317 316
76 168 189 152 153 204 205 301 181 174 186 175 138 95 75 72 77 80 110 137 36 327 261 236 164 227 274 224 116 74 196 235 251 248 250 257 257 253 252 252 250 252 252 251 251 250 248 245 241 236 231 230 229 226 224 223 222 223 225 227 230 234 237 241 247 257 267 278 286 293 298 301 305 309 313 316 316 316 317 320 323 324 322 319 317 317
63 92 181 168 174 171 137 75 48 116 140 133 113 70 53 42 51 50 56 92 43 266 258 230 178 190 272 246 153 177 198 206 220 240 252 255 255 251 247 242 244 251 255 255 253 250 247 244 241 236 232 230 228 225 222 221 221 222 224 227 230 233 235 239 246 255 266 276 284 291 295 300 304 308 312 314 315 316 317 320 322 323 320 318 317 317
9 125 238 208 165 129 105 70 36 58 112 117 92 74 46 344 10 22 356 54 257 256 257 225 175 185 244 246 188 229 251 218 204 218 235 240 244 242 237 237 246 256 259 255 251 247 243 240 237 233 232 230 227 223 220 220 220 220 223 225 228 232 234 238 245 254 264 273 282 289 293 298 304 308 311 313 315 316 317 320 321 320 317 316 316 316
288 215 211 171 176 163 126 80 36 14 58 103 94 90 56 326 349 347 303 129 228 256 246 155 147 219 246 245 234 251 262 241 219 218 221 220 231 234 232 240 253 262 263 257 251 246 243 240 238 235 232 229 226 223 220 219 218 219 221 224 227 231 233 238 245 253 263 271 280 287 292 298 303 308 311 313 315 316 318 320 321 318 316 316 316 316
292 288 150 153 224 191 170 161 192 228 174 160 143 126 136 143 69 282 270 282 271 270 265 149 151 252 268 258 221 223 233 229 224 227 226 223 229 235 241 252 263 268 266 261 254 249 247 245 243 240 234 230 227 223 220 219 218 218 220 223 226 230 233 238 245 252 261 269 278 285 291 297 302 307 310 312 314 316 318 320 319 317 316 316 316 316
242 284 198 173 209 178 181 195 163 137 147 177 157 141 155 152 168 226 235 252 276 288 289 223 186 227 260 266 209 215 234 233 231 232 231 234 239 245 254 259 264 267 267 264 258 254 253 251 246 242 237 233 229 223 219 218 218 218 220 222 225 229 233 238 244 251 259 268 276 283 290 296 301 305 308 310 312 314 318 318 316 315 314 314 315 316
221 269 238 148 62 157 175 202 116 113 133 196 127 123 171 177 171 208 218 198 242 315 288 229 220 231 222 245 229 222 245 238 236 235 233 240 246 249 256 257 260 264 265 265 261 259 256 251 245 242 238 234 229 223 220 218 218 218 219 221 224 228 233 237 243 250 257 266 274 282 289 295 300 303 306 309 311 314 317 316 314 313 313 314 315 315
201 273 311 38 23 129 146 205 121 128 166 161 148 172 203 182 139 146 267 36 69 284 272 250 260 273 282 267 238 195 204 231 236 228 225 238 244 247 250 252 255 258 261 263 262 262 257 251 247 244 240 235 230 225 221 219 218 218 219 222 224 227 232 236 242 249 255 263 272 280 287 293 297 302 306 308 311 315 316 314 312 312 313 314 315 315
187 269 304 80 198 289 26 47 38 14 122 129 191 208 180 123 94 112 252 351 25 249 271 289 271 276 281 274 282 114 197 233 233 217 228 240 243 245 246 248 251 253 256 261 261 260 257 254 251 247 243 238 232 228 223 219 217 218 220 223 224 227 231 235 241 247 254 262 271 278 285 292 297 303 307 309 312 315 314 312 311 312 313 314 315 316
168 243 286 125 197 258 28 85 71 348 73 125 197 204 114 144 159 116 169 228 249 237 273 282 275 274 265 253 261 207 210 226 227 220 234 242 241 241 243 246 247 248 253 257 259 259 257 256 254 248 243 237 232 228 223 218 216 217 219 221 223 225 229 235 239 246 255 262 270 278 285 292 298 304 306 309 312 313 311 311 312 313 314 315 316 317
149 209 249 234 253 316 51 193 191 204 36 59 264 352 48 165 172 169 169 184 211 203 260 279 280 276 254 195 203 222 213 212 214 216 226 234 235 235 238 242 243 246 254 257 257 259 259 259 255 248 243 236 231 225 219 215 214 216 219 220 222 224 228 234 238 246 255 263 271 278 286 294 299 303 306 309 312 312 311 312 313 314 315 316 318 318
99 207 228 211 339 263 192 204 200 190 174 161 187 186 214 189 123 210 235 125 147 181 231 262 271 273 258 144 175 213 206 201 197 203 217 224 231 233 236 241 245 252 256 255 255 258 259 259 253 246 240 234 228 222 215 213 214 216 219 219 221 224 227 233 238 246 255 262 271 280 287 295 300 303 307 310 312 311 312 313 314 315 316 318 318 317
148 203 212 177 231 236 226 220 202 190 175 174 190 190 194 185 134 202 249 216 159 193 204 201 258 268 258 113 158 198 184 200 196 200 215 215 224 234 240 247 254 256 253 251 255 259 259 256 250 243 236 229 224 219 213 212 214 216 218 218 220 223 227 233 238 246 254 262 271 280 288 295 300 304 308 311 311 311 313 314 315 317 318 318 318 318
132 144 205 223 232 236 255 320 16 218 149 152 206 198 182 175 156 189 228 226 163 210 209 111 265 266 260 99 131 180 170 202 202 198 210 218 226 237 247 254 256 251 245 248 255 257 257 253 247 240 234 227 221 215 211 211 214 215 217 218 220 223 227 232 238 245 252 262 272 281 290 296 301 306 310 312 312 313 314 314 316 318 319 319 319 319
111 136 205 239 263 292 360 18 7 354 90 147 237 197 169 198 199 204 220 188 171 212 189 97 257 263 271 90 131 200 194 213 212 208 218 228 234 242 249 250 246 237 240 250 254 255 254 249 243 237 232 225 218 213 210 212 213 215 216 217 219 223 227 231 237 245 252 262 273 282 291 297 303 309 312 312 312 313 314 316 318 320 320 320 320 321
170 190 188 214 270 280 288 317 345 338 262 214 233 179 188 213 207 208 22 109 239 211 160 160 248 258 269 87 124 211 211 229 235 227 231 238 241 245 247 242 236 237 246 253 254 254 251 246 243 238 231 223 216 212 211 212 213 214 215 216 219 222 226 230 235 243 252 262 273 283 292 299 306 310 311 312 312 314 316 318 321 321 321 322 322 323
176 192 181 194 229 234 242 246 234 222 206 222 224 177 195 207 197 194 211 222 235 190 140 190 247 256 270 281 277 260 230 233 247 235 235 242 245 248 250 247 245 248 252 255 256 253 250 247 243 236 229 221 216 212 212 212 213 214 215 215 218 220 224 229 234 242 252 263 273 284 293 301 308 310 311 312 313 315 318 320 322 323 323 324 324 324
163 207 196 208 223 224 239 249 206 127 152 205 209 194 199 209 202 198 225 232 221 143 163 227 241 255 275 281 277 270 260 259 263 253 240 247 253 256 259 259 257 255 257 257 255 251 247 244 240 234 227 220 216 213 213 213 213 213 213 213 216 218 222 227 234 242 252 264 274 286 295 303 309 310 311 313 314 317 321 322 323 324 325 325 325 325
125 230 214 223 233 231 244 251 214 146 194 211 200 206 211 209 200 201 226 229 184 126 232 239 241 255 269 269 269 271 271 271 274 275 270 269 270 268 267 265 259 256 257 254 250 249 246 243 237 231 226 220 216 214 212 213 213 213 213 213 215 217 221 226 233 242 253 265 276 288 298 306 309 311 312 314 317 320 322 324 325 325 326 326 325 325
151 231 227 232 242 240 250 254 228 176 227 225 195 214 221 210 199 207 227 230 202 208 240 245 246 251 255 257 261 265 271 276 283 286 284 280 277 274 270 265 257 257 257 253 251 251 248 243 237 231 226 221 217 213 211 211 212 211 211 211 213 215 219 225 233 242 254 266 279 291 302 308 310 311 313 316 319 322 324 326 326 326 327 326 326 325
169 232 235 236 248 249 249 253 238 205 243 250 230 231 236 225 208 212 231 234 225 231 246 255 258 256 255 256 259 266 276 287 292 288 285 281 276 274 273 268 262 261 259 255 256 255 249 244 237 231 226 221 217 213 211 211 210 209 209 210 212 214 218 225 233 243 255 268 282 295 304 309 310 311 315 318 322 324 326 327 327 326 326 326 326 325
199 235 240 240 256 253 249 255 246 212 236 253 255 254 251 242 222 222 237 240 236 244 254 257 260 260 256 258 264 274 282 289 288 282 279 278 276 276 276 274 269 264 261 259 258 255 248 241 233 229 225 222 218 213 211 211 209 208 209 210 211 213 218 224 233 244 257 272 287 298 306 309 310 313 317 321 324 326 328 328 327 326 326 326 326 326
213 238 245 243 254 250 252 261 249 206 228 251 253 252 252 249 238 234 240 241 236 245 255 256 254 252 255 262 269 271 273 275 272 270 270 272 274 274 273 273 270 266 264 263 259 253 246 237 231 229 227 222 217 213 211 210 207 206 208 208 209 212 217 224 233 245 260 276 291 301 307 309 311 317 321 324 327 328 328 327 326 326 326 326 326 326
194 207 221 228 244 253 256 258 218 152 217 248 244 246 251 253 249 246 251 251 234 227 242 250 250 254 262 269 268 265 263 257 260 263 265 268 272 272 269 268 269 269 268 267 263 256 248 241 236 234 229 223 217 214 212 209 206 206 207 207 209 211 216 223 233 247 263 280 294 303 307 310 314 320 323 326 328 329 328 326 326 326 326 326 327 327
199 212 225 221 238 252 250 233 122 166 233 247 241 225 236 247 250 251 256 255 244 231 234 246 257 265 268 267 264 265 266 263 265 267 266 266 268 270 269 268 269 272 273 271 266 259 253 245 238 233 227 222 217 213 210 206 205 206 205 205 208 210 215 223 233 249 266 284 298 304 307 312 318 322 325 328 329 329 327 326 326 326 326 327 328 329
209 214 225 222 242 259 192 120 198 224 232 256 292 239 235 245 255 257 257 254 249 245 243 246 256 262 264 264 262 261 262 265 270 273 272 265 262 266 268 270 271 272 273 273 268 261 253 242 234 228 222 219 216 211 206 202 202 203 202 203 205 208 215 223 234 252 271 288 299 304 308 315 321 324 327 328 328 327 326 325 326 326 326 328 330 331
221 221 226 225 234 249 146 195 229 246 280 312 291 265 249 230 219 252 260 255 246 243 244 243 249 255 258 262 262 260 262 267 273 276 274 265 264 266 264 268 272 273 275 276 272 265 256 244 237 231 224 219 214 207 202 200 200 200 199 201 204 207 215 223 235 255 275 290 298 304 311 317 323 324 327 329 326 325 325 325 326 326 327 330 332 332
222 223 225 224 220 217 222 224 237 281 308 289 270 259 232 194 201 216 249 259 251 241 236 233 243 251 251 255 260 261 266 276 281 277 273 267 267 269 266 269 276 278 278 278 273 266 258 246 237 231 224 218 210 203 200 199 199 198 198 200 203 206 213 223 236 256 277 291 298 307 314 320 323 325 327 327 325 324 325 325 326 328 329 331 333 334
219 218 215 220 214 209 231 238 237 252 254 249 253 249 201 184 200 194 217 260 261 249 234 220 235 247 247 252 258 260 269 287 277 271 273 271 269 272 273 274 279 280 275 271 263 255 246 237 231 227 223 215 205 199 198 198 197 197 197 199 202 206 213 223 236 257 278 292 301 311 319 321 323 326 327 326 323 324 325 326 328 330 332 334 334 335
218 216 216 228 224 210 229 234 223 230 231 238 250 251 198 168 171 150 189 258 257 250 237 220 230 241 242 247 248 221 168 255 253 264 272 272 270 273 275 273 272 272 269 265 261 252 242 235 228 222 217 210 201 196 196 196 195 195 197 198 202 206 213 223 238 261 281 295 307 315 320 322 323 326 326 323 323 325 325 327 329 332 335 337 335 335
214 211 216 225 224 222 227 227 228 239 237 241 252 250 168 146 135 100 248 255 255 249 232 218 227 235 233 234 229 179 182 228 243 263 270 270 267 262 259 257 259 263 262 259 254 246 239 233 225 216 210 204 199 194 193 194 193 194 195 197 201 205 212 223 241 268 285 299 311 318 320 321 323 324 322 321 323 325 325 327 330 333 337 339 338 336
205 204 211 217 222 224 223 228 239 239 234 247 250 188 135 129 124 162 231 243 255 247 210 205 216 227 226 216 192 194 220 230 240 256 264 265 260 249 244 249 253 254 255 255 249 240 233 227 224 218 207 199 196 194 192 192 191 192 193 196 199 204 211 224 248 274 290 305 315 318 318 319 322 322 319 319 322 325 326 328 331 335 339 341 340 337
182 191 210 215 224 224 222 233 244 235 233 237 200 148 147 150 197 224 235 248 258 231 187 200 210 219 220 206 197 215 231 238 242 248 253 255 254 248 246 249 246 242 244 241 235 231 224 216 212 208 199 193 193 193 192 191 191 191 192 194 197 202 209 226 254 275 293 309 315 316 316 317 319 318 316 317 322 324 326 330 334 337 341 343 343 339
174 183 209 203 209 221 226 228 231 241 227 197 157 147 176 209 230 233 242 259 262 244 205 205 216 221 217 207 210 222 233 239 241 243 246 248 249 248 249 249 245 245 245 239 231 226 219 210 204 199 194 191 191 191 191 190 190 191 191 193 196 200 209 229 253 275 295 310 314 313 313 314 314 312 313 318 321 323 327 332 336 340 343 345 345 342
171 181 213 205 193 206 226 213 213 241 211 168 163 190 210 211 226 238 240 249 256 248 224 213 225 229 222 215 220 227 231 234 236 240 242 242 243 245 246 243 240 238 236 233 229 221 213 207 200 194 191 190 189 189 189 189 190 190 190 192 196 199 212 232 252 276 297 308 309 307 307 309 308 307 312 318 320 323 330 334 337 343 346 347 348 346
187 195 219 227 204 205 228 224 213 240 217 183 190 216 217 212 223 234 237 239 248 248 237 228 235 238 232 226 228 230 232 234 236 238 239 239 241 243 243 240 238 235 230 226 221 213 208 205 198 191 189 187 187 187 187 187 189 191 190 192 195 201 217 234 253 277 295 302 300 298 300 302 302 306 312 319 321 326 333 336 340 346 348 349 352 350
207 211 224 233 224 223 237 236 205 227 228 206 210 223 227 222 225 232 238 242 245 246 245 241 243 245 241 233 229 230 236 239 238 237 238 238 238 238 236 233 229 224 220 217 211 206 202 199 195 191 187 186 185 185 185 184 186 190 192 192 195 206 220 234 254 276 288 292 288 287 291 294 298 306 314 319 324 330 336 340 344 347 349 351 354 353
222 226 233 237 234 234 236 224 215 227 230 220 218 224 232 235 234 234 238 241 243 246 247 246 248 250 248 239 234 236 241 242 240 238 236 235 235 233 229 226 223 220 219 217 212 205 198 194 193 190 188 186 184 183 184 185 185 188 192 194 199 209 220 231 253 272 279 282 279 279 284 287 292 304 314 320 325 331 339 345 347 349 351 353 353 354
217 213 225 235 234 237 241 230 229 240 241 234 228 226 231 239 240 238 239 241 244 247 247 246 248 250 248 246 244 244 245 244 242 240 236 234 234 232 228 225 223 219 216 213 210 204 197 194 192 190 187 187 184 183 184 185 185 187 191 196 203 209 218 229 245 259 267 271 272 275 281 284 292 305 316 324 330 335 342 348 351 355 356 355 355 356
216 196 208 240 236 241 252 250 249 260 261 252 242 234 234 239 242 241 242 243 244 248 249 248 248 248 248 249 250 248 245 245 245 243 238 235 234 231 229 227 224 219 214 210 206 203 198 194 192 189 188 187 185 184 184 184 185 188 191 198 204 207 213 224 231 240 253 261 266 273 278 284 296 310 319 328 340 346 348 349 352 358 360 358 358 359
267 243 238 265 250 243 245 239 238 248 256 254 249 244 242 243 243 243 244 244 244 246 248 248 249 249 250 252 252 249 245 246 247 243 238 238 238 236 232 226 219 215 212 207 203 199 196 193 191 189 189 187 186 185 184 185 187 189 193 199 203 203 210 217 219 226 241 252 261 269 276 285 300 314 321 331 348 1 5 1 355 353 355 358 359 358
237 240 235 244 251 248 243 237 235 239 245 250 252 252 251 248 245 243 245 246 245 246 247 248 248 249 250 251 251 248 245 247 248 242 238 240 241 238 234 226 219 213 208 203 199 194 190 190 190 190 189 187 185 185 185 187 189 191 195 199 199 199 206 209 211 221 233 246 256 264 273 286 303 318 324 335 350 1 13 21 12 358 355 356 355 352